Location: Erdweis
(48.5167°N, 15.3500°E)
Time: 01:57:57
(UTC+00:00)

Cosmos 990 Rocket - Pass Details

Date: 18 September 2020
Orbit: 746 x 769 km, 74.0° (Epoch: 31 October)

Event Time Altitude Azimuth Distance (km) Brightness Sun altitude
Rises 17:57:44 0° 206° (SSW) 3,179 7.4 -9.6°
Reaches altitude 10° 18:00:05 10° 208° (SSW) 2,258 6.6 -10.0°
Maximum altitude 18:05:12 75° 294° (WNW) 777 4.2 -10.8°
Drops below altitude 10° 18:10:22 10° 20° (NNE) 2,277 6.4 -11.6°
Sets 18:12:45 0° 22° (NNE) 3,208 7.2 -12.0°
